Barter Island, AK

8:13 PM AKDT on July 20, 2017 (GMT -0800)
Barter Island LRRS

Weather History for PABA - January, 2013

Change the Weather History Date:

Sunday, January 6, 2013

  Actual Average Record
Temperature  
Mean Temperature -10 °F -  
Max Temperature -15 °F 0 °F 17 °F (2016)
Min Temperature -15 °F -12 °F -38 °F (1997)
Degree Days  
Heating Degree Days 75    
Moisture  
Dew Point -15 °F    
Average Humidity 82    
Maximum Humidity 92    
Minimum Humidity 78    
Precipitation  
Precipitation 0.00 in - - ()
Sea Level Pressure  
Sea Level Pressure 29.91 in    
Wind  
Wind Speed 14 mph (ENE)    
Max Wind Speed 17 mph    
Max Gust Speed -    
Visibility 8 miles    
Events Snow    
Averages and records for this station are not official NWS values.
T = Trace of Precipitation, MM = Missing Value Source: NWS Daily Summary

Daily Weather History Graph

Daily Weather History Graph

Search for Another Location

Airport or City:

Trip Planner

Search our weather history database for the weather conditions in past years. The results will help you decide how hot, cold, wet, or windy it might be!

Date:

Astronomy

Jan. 06, 2013 Rise Set
Actual Time 12:07 PM AKST 1:12 PM AKST
Civil Twilight 10:15 AM AKST 3:05 PM AKST
Nautical Twilight 8:34 AM AKST 4:46 PM AKST
Astronomical Twilight 7:16 AM AKST 6:04 PM AKST
Moon 4:44 AM AKST (1/6) 10:24 AM AKST (1/6)
Length of Visible Light 4h 49m
Length of Day
1h 04m
Waning Crescent, 31% of the Moon is Illuminated
Jan 6
Waning Crescent
Jan 11
New
Jan 18
First Quarter
Jan 26
Full
Feb 3
Last Quarter

Hourly Weather History & Observations

Time (AKST) Temp. Windchill Dew Point Humidity Pressure Visibility Wind Dir Wind Speed Gust Speed Precip Events Conditions
12:01 AM -9.0 °F -31.7 °F -13.0 °F 83% 30.00 in 5.0 mi East 16.1 mph - N/A   Clear
12:11 AM -9.4 °F -32.1 °F -11.2 °F 92% 29.99 in 4.0 mi East 16.1 mph - N/A   Partly Cloudy
1:01 AM -8.0 °F -31.0 °F -11.9 °F 83% 29.99 in 6.0 mi ENE 17.3 mph - N/A   Clear
2:01 AM -8.0 °F -30.3 °F -11.9 °F 83% 29.98 in 8.0 mi ENE 16.1 mph - N/A   Clear
3:01 AM -7.6 °F -28.3 °F -11.2 °F 84% 29.97 in 6.0 mi ENE 13.8 mph - N/A   Partly Cloudy
4:01 AM -8.0 °F -29.6 °F -11.9 °F 83% 29.96 in 7.0 mi ENE 15.0 mph - N/A   Clear
5:01 AM -9.0 °F -30.9 °F -13.0 °F 83% 29.96 in 4.0 mi ENE 15.0 mph - N/A   Clear
6:01 AM -11.9 °F -33.8 °F -16.1 °F 82% 29.96 in 7.0 mi East 13.8 mph - N/A   Clear
7:01 AM -11.9 °F -33.8 °F -16.1 °F 82% 29.96 in 6.0 mi East 13.8 mph - N/A   Clear
8:01 AM -11.9 °F -32.0 °F -16.1 °F 82% 29.95 in 7.0 mi East 11.5 mph - N/A   Clear
9:01 AM -11.0 °F -30.9 °F -16.1 °F 78% 29.94 in 8.0 mi ENE 11.5 mph - N/A   Clear
10:01 AM -11.9 °F -34.6 °F -16.1 °F 82% 29.92 in 9.0 mi ENE 15.0 mph - N/A   Clear
11:01 AM -13.0 °F -34.3 °F -17.0 °F 82% 29.91 in 9.0 mi East 12.7 mph - N/A   Clear
12:01 PM -13.0 °F -35.2 °F -17.0 °F 82% 29.90 in 7.0 mi ENE 13.8 mph - N/A   Clear
1:01 PM -13.0 °F -32.4 °F -17.0 °F 82% 29.90 in 7.0 mi ENE 10.4 mph - N/A   Clear
2:01 PM -11.0 °F -27.6 °F -15.0 °F 83% 29.89 in 4.0 mi East 8.1 mph - N/A   Clear
3:01 PM -9.0 °F -26.4 °F -13.0 °F 83% 29.88 in 8.0 mi ENE 9.2 mph - 0.00 in Snow Light Snow
4:01 PM -9.9 °F -29.6 °F -13.0 °F 86% 29.88 in 9.0 mi ENE 11.5 mph - 0.00 in   Clear
5:01 PM -9.0 °F -27.4 °F -13.0 °F 83% 29.86 in 9.0 mi ENE 10.4 mph - N/A   Clear
6:01 PM -9.9 °F -28.6 °F -14.1 °F 82% 29.86 in 10.0 mi East 10.4 mph - N/A   Clear
7:01 PM -11.0 °F -28.8 °F -15.0 °F 83% 29.85 in 10.0 mi ENE 9.2 mph - N/A   Clear
8:01 PM -11.9 °F -28.7 °F -17.0 °F 78% 29.85 in 10.0 mi ENE 8.1 mph - N/A   Clear
9:01 PM -11.9 °F -27.3 °F -17.0 °F 78% 29.84 in 10.0 mi East 6.9 mph - N/A   Clear
10:01 PM -13.0 °F -30.0 °F -17.0 °F 82% 29.83 in 10.0 mi ENE 8.1 mph - N/A   Clear
11:01 PM -15.0 °F -31.0 °F -20.0 °F 78% 29.83 in 10.0 mi ENE 6.9 mph - N/A   Clear